Flag for Australia Weather past 2 weeks in Broome, Western Australia, Australia

Now
55 °F

Cool.


Feels Like: 55 °F
Forecast: 68 / 85 °F
Wind: No wind

Location: Broome Airport

Current Time: Aug 21, 2014 at 1:19:08 AM

Latest Report: Aug 21, 2014 at 12:00 AM


Visibility: N/A

Pressure: 29.97 "Hg

Humidity: 96%

Dew point: 54 °F

Location of BroomeLocation

Historic Weather in Broome — Graph

°F

Broome temperature yesterday

Maximum temperature yesterday: 88 °F (at 2:00 PM)
Minimum temperature yesterday: 50 °F (at 6:00 AM)
Average temperature yesterday: 68 °F

Past Weeks' High & Low Weather Summary

 TemperatureHumidityPressure
High94 °F (Aug 9, 12:00 PM)99% (Aug 19, 5:00 AM)30.22 "Hg (Aug 19, 5:00 AM)
Low48 °F (Aug 18, 3:00 AM)6% (Aug 17, 3:00 PM)29.90 "Hg (Aug 20, 3:00 PM)
Average70 °F39%30.05 "Hg
* Reported Midnight between Aug 5 and Aug 6 — Midnight between Aug 20 and Aug 21, Broome, Weather by CustomWeather, © 2014

Note: Actual official high and low records may vary slightly from our data, if they occured in-between our weather recording intervals... More about our weather records

Advertising

Broome weather history for previous 24 hours

 ConditionsComfort  
Time TempWeatherWind HumidityBarometerVisibility
12:00 AM
Aug 21
55 °FCool.No wind96%29.97 "HgN/A
11:00 PM
Aug 20
58 °FCool.No wind95%29.98 "HgN/A
9:00 PM62 °FClear.3 mph93%29.98 "Hg19 mi
8:00 PM63 °FMild.No wind92%29.98 "HgN/A
6:00 PM72 °FClear.6 mph74%29.93 "Hg25 mi
5:00 PM75 °FMild.8 mph58%29.93 "HgN/A
3:00 PM87 °FSunny.13 mph14%29.90 "Hg19 mi
2:00 PM88 °FPleasantly warm.10 mph9%29.92 "HgN/A
12:00 PM86 °FSunny.9 mph10%29.97 "Hg19 mi
11:00 AM83 °FPleasantly warm.8 mph17%30.01 "HgN/A
9:00 AM71 °FSunny.8 mph35%30.03 "Hg19 mi
8:00 AM68 °FMild.9 mph51%30.03 "HgN/A
6:00 AM50 °FFog.No wind99%30.00 "Hg1 mi
5:00 AM52 °FCool.No wind93%29.98 "HgN/A
3:00 AM55 °FCool.No wind99%29.97 "HgN/A
2:00 AM56 °FCool.No wind96%29.98 "HgN/A
Weather by CustomWeather, © 2014

See weather overviewHow to use our weather pages